Content
SEND FEEDBACK

Daily
Averages
Monthly
Summary
United Kingdom

LONDON, ENGLAND


Home > Europe > United Kingdom > England
Elevation: 203 feet     Latitude: 51 09N     Longitude: 000 11W

WEATHER
 
SELECT A DAY
Number of Records: 292,925;   Date Range: 7/1/96 - 7/28/14
 
SHARE

PRINT THIS DATA

[ ← Previous Day ]
WEATHER ALMANAC - JULY 28, 2013
[ Next Day → ]
[ °C ]   °F
Weather ElementAverageHighLow
Temperature65.8 °F73.4 °F (2:20 pm)59 °F (3:50 am)
Dewpoint57.5 °F60.8 °F (12:50 am)55.4 °F (5:20 pm)
Humidity75.9 %100 % (1:20 am)57 % (2:20 pm)
Barometer29.76 in29.80 in (12:20 pm)29.65 in (12:50 am)
Wind Speed10.6 mph15 mph (1:50 pm)
Weather ElementAverage
Visibility6 mi
Wind DirectionSSW (203 °)

Weather ElementTotal
Precipitation---
Cooling Degree Days1.2 (Base 65)
Growing Degree Days16.2 (Base 50)
Averaged from 47 records on July 28, 2013
WEATHER CONDITIONS BREAKOUT
WIND DIRECTION BREAKOUT
WEATHER BY HOUR - JULY 28, 2013
[ °C ]   °F
Local TimeTemperatureDewpointHumidityBarometerVisibilityWind DirectionWind SpeedGust SpeedPrecipitationEventsConditions
12:50 AM62.6 °F60.8 °F94 %29.65 in3.1 miWSW (240°)10.4 mphMostly Cloudy
1:20 AM60.8 °F60.8 °F100 %29.65 inWSW (240°)12.7 mphMostly Cloudy
1:50 AM60.8 °F60.8 °F100 %29.65 in3.1 miWSW (240°)11.5 mphMostly Cloudy
2:20 AM60.8 °F59.0 °F94 %29.65 in6.2 miWSW (250°)9.2 mphScattered Clouds
2:50 AM60.8 °F59.0 °F94 %29.68 in6.2 miSW (230°)8.1 mphMostly Cloudy
3:20 AM60.8 °F59.0 °F94 %29.68 in6.2 miWSW (240°)8.1 mphMostly Cloudy
3:50 AM59.0 °F57.2 °F94 %29.68 in6.2 miSW (230°)12.7 mphMostly Cloudy
4:20 AM59.0 °F57.2 °F94 %29.71 in6.2 miSW (220°)10.4 mphMostly Cloudy
4:50 AM59.0 °F57.2 °F94 %29.71 in6.2 miSW (230°)8.1 mphMostly Cloudy
5:20 AM59.0 °F57.2 °F94 %29.71 in6.2 miSW (230°)9.2 mphMostly Cloudy
5:50 AM59.0 °F57.2 °F94 %29.71 in5.6 miSW (230°)9.2 mphScattered Clouds
6:20 AM59.0 °F57.2 °F94 %29.71 in5.6 miSW (230°)8.1 mphScattered Clouds
6:50 AM59.0 °F57.2 °F94 %29.71 in5.6 miWSW (240°)8.1 mphScattered Clouds
7:20 AM60.8 °F57.2 °F88 %29.74 in5.6 miSW (230°)8.1 mphMostly Cloudy
7:50 AM62.6 °F59.0 °F88 %29.74 in6.2 miSW (230°)11.5 mphScattered Clouds
8:20 AM62.6 °F57.2 °F82 %29.74 in6.2 miSW (220°)12.7 mphScattered Clouds
8:50 AM64.4 °F57.2 °F77 %29.77 in6.2 miSW (230°)11.5 mphPartly Cloudy
9:20 AM66.2 °F59.0 °F78 %29.77 in6.2 miWSW (240°)10.4 mphScattered Clouds
9:50 AM66.2 °F57.2 °F73 %29.77 in6.2 miSW (220°)13.8 mphScattered Clouds
10:20 AM68.0 °F57.2 °F68 %29.77 in6.2 miSSW (210°)12.7 mphScattered Clouds
10:50 AM68.0 °F57.2 °F68 %29.77 in6.2 miSW (220°)12.7 mphScattered Clouds
11:20 AM69.8 °F59.0 °F68 %29.77 in6.2 miSSW (210°)12.7 mphScattered Clouds
11:50 AM69.8 °F57.2 °F64 %29.77 in6.2 miSSW (210°)13.8 mphScattered Clouds
12:20 PM69.8 °F57.2 °F64 %29.80 in6.2 miSSW (210°)13.8 mphScattered Clouds
12:50 PM69.8 °F57.2 °F64 %29.80 in6.2 miSSW (200°)12.7 mphScattered Clouds
1:20 PM69.8 °F57.2 °F64 %29.80 in6.2 miSW (220°)11.5 mphScattered Clouds
1:50 PM71.6 °F57.2 °F60 %29.80 in6.2 miSSW (200°)15.0 mphScattered Clouds
2:20 PM73.4 °F57.2 °F57 %29.80 in6.2 miSSW (200°)10.4 mphScattered Clouds
2:50 PM71.6 °F59.0 °F64 %29.80 in6.2 miSouth (180°)11.5 mphScattered Clouds
3:20 PM71.6 °F57.2 °F60 %29.80 in6.2 miSouth (180°)11.5 mphScattered Clouds
3:50 PM68.0 °F57.2 °F68 %29.80 in6.2 miSouth (190°)10.4 mphScattered Clouds
4:20 PM69.8 °F57.2 °F64 %29.80 in6.2 miSouth (180°)12.7 mphPartly Cloudy
4:50 PM71.6 °F57.2 °F60 %29.80 in6.2 miSouth (170°)12.7 mphScattered Clouds
5:20 PM71.6 °F55.4 °F57 %29.80 in6.2 miSouth (170°)12.7 mphPartly Cloudy
5:50 PM71.6 °F55.4 °F57 %29.80 in6.2 miSouth (180°)12.7 mphPartly Cloudy
6:20 PM71.6 °F55.4 °F57 %29.80 in6.2 miSouth (180°)11.5 mphPartly Cloudy
6:50 PM69.8 °F57.2 °F64 %29.80 in6.2 miSouth (170°)10.4 mphPartly Cloudy
7:20 PM69.8 °F57.2 °F64 %29.80 in6.2 miSSE (160°)10.4 mphPartly Cloudy
7:50 PM68.0 °F57.2 °F68 %29.77 inSSE (160°)10.4 mphClear
8:20 PM68.0 °F55.4 °F64 %29.77 inSSE (150°)9.2 mphClear
8:50 PM66.2 °F57.2 °F73 %29.77 inSSE (150°)5.8 mphClear
9:20 PM66.2 °F57.2 °F73 %29.77 inSSE (150°)6.9 mphClear
9:50 PM64.4 °F57.2 °F77 %29.77 in6.2 miSSE (150°)4.6 mphPartly Cloudy
10:20 PM64.4 °F57.2 °F77 %29.80 in6.2 miSE (140°)6.9 mphScattered Clouds
10:50 PM64.4 °F57.2 °F77 %29.80 in6.2 miSSE (160°)8.1 mphScattered Clouds
11:20 PM66.2 °F57.2 °F73 %29.80 in6.2 miSSW (200°)12.7 mphPartly Cloudy
11:50 PM66.2 °F57.2 °F73 %29.80 in6.2 miSW (220°)9.2 mphRainLight Rain Showers
Hourly data recorded from EGKK, located miles away from London, England







STORIES FROM OUR PARTNERS